Year,Month,Day,Hour,Minute,Value (Times are PST for temperature in C)
2019,08,12,00,00,16.70
2019,08,12,00,01,16.70
2019,08,12,00,02,16.70
2019,08,12,00,03,16.70
2019,08,12,00,04,16.70
2019,08,12,00,05,16.70
2019,08,12,00,06,16.60
2019,08,12,00,07,16.60
2019,08,12,00,08,16.60
2019,08,12,00,09,16.60
2019,08,12,00,10,16.60
2019,08,12,00,11,16.60
2019,08,12,00,12,16.60
2019,08,12,00,13,16.60
2019,08,12,00,14,16.60
2019,08,12,00,15,16.60
2019,08,12,00,16,16.60
2019,08,12,00,17,16.60
2019,08,12,00,18,16.50
2019,08,12,00,19,16.50
2019,08,12,00,20,16.50
2019,08,12,00,21,16.50
2019,08,12,00,22,16.50
2019,08,12,00,23,16.40
2019,08,12,00,24,16.40
2019,08,12,00,25,16.40
2019,08,12,00,26,16.40
2019,08,12,00,27,16.40
2019,08,12,00,28,16.40
2019,08,12,00,29,16.40
2019,08,12,00,30,16.40
2019,08,12,00,31,16.40
2019,08,12,00,32,16.40
2019,08,12,00,33,16.40
2019,08,12,00,34,16.30
2019,08,12,00,35,16.30
2019,08,12,00,36,16.30
2019,08,12,00,37,16.30
2019,08,12,00,38,16.30
2019,08,12,00,39,16.30
2019,08,12,00,40,16.30
2019,08,12,00,41,16.30
2019,08,12,00,42,16.30
2019,08,12,00,43,16.30
2019,08,12,00,44,16.30
2019,08,12,00,45,16.30
2019,08,12,00,46,16.30
2019,08,12,00,47,16.30
2019,08,12,00,48,16.30
2019,08,12,00,49,16.30
2019,08,12,00,50,16.30
2019,08,12,00,51,16.30
2019,08,12,00,52,16.20
2019,08,12,00,53,16.20
2019,08,12,00,54,16.20
2019,08,12,00,55,16.20
2019,08,12,00,56,16.20
2019,08,12,00,57,16.20
2019,08,12,00,58,16.20
2019,08,12,00,59,16.20
2019,08,12,01,00,16.20
2019,08,12,01,01,16.20
2019,08,12,01,02,16.20
2019,08,12,01,03,16.20
2019,08,12,01,04,16.20
2019,08,12,01,05,16.20
2019,08,12,01,06,16.20
2019,08,12,01,07,16.20
2019,08,12,01,08,16.20
2019,08,12,01,09,16.20
2019,08,12,01,10,16.10
2019,08,12,01,11,16.10
2019,08,12,01,12,16.10
2019,08,12,01,13,16.10
2019,08,12,01,14,16.10
2019,08,12,01,15,16.10
2019,08,12,01,16,16.10
2019,08,12,01,17,16.00
2019,08,12,01,18,16.00
2019,08,12,01,19,16.00
2019,08,12,01,20,15.90
2019,08,12,01,21,15.90
2019,08,12,01,22,15.90
2019,08,12,01,23,15.90
2019,08,12,01,24,15.90
2019,08,12,01,25,15.80
2019,08,12,01,26,15.80
2019,08,12,01,27,15.80
2019,08,12,01,28,15.80
2019,08,12,01,29,15.70
2019,08,12,01,30,15.70
2019,08,12,01,31,15.70
2019,08,12,01,32,15.70
2019,08,12,01,33,15.70
2019,08,12,01,34,15.70
2019,08,12,01,35,15.70
2019,08,12,01,36,15.60
2019,08,12,01,37,15.60
2019,08,12,01,38,15.60
2019,08,12,01,39,15.60
2019,08,12,01,40,15.60
2019,08,12,01,41,15.60
2019,08,12,01,42,15.60
2019,08,12,01,43,15.60
2019,08,12,01,44,15.60
2019,08,12,01,45,15.60
2019,08,12,01,46,15.60
2019,08,12,01,47,15.60
2019,08,12,01,48,15.60
2019,08,12,01,49,15.60
2019,08,12,01,50,15.60
2019,08,12,01,51,15.60
2019,08,12,01,52,15.60
2019,08,12,01,53,15.60
2019,08,12,01,54,15.60
2019,08,12,01,55,15.60
2019,08,12,01,56,15.60
2019,08,12,01,57,15.60
2019,08,12,01,58,15.60
2019,08,12,01,59,15.60
2019,08,12,02,00,15.60
2019,08,12,02,01,15.70
2019,08,12,02,02,15.70
2019,08,12,02,03,15.70
2019,08,12,02,04,15.70
2019,08,12,02,05,15.80
2019,08,12,02,06,15.80
2019,08,12,02,07,15.80
2019,08,12,02,08,15.90
2019,08,12,02,09,15.90
2019,08,12,02,10,15.90
2019,08,12,02,11,16.00
2019,08,12,02,12,16.00
2019,08,12,02,13,16.00
2019,08,12,02,14,16.10
2019,08,12,02,15,16.10
2019,08,12,02,16,16.10
2019,08,12,02,17,16.10
2019,08,12,02,18,16.10
2019,08,12,02,19,16.10
2019,08,12,02,20,16.20
2019,08,12,02,21,16.20
2019,08,12,02,22,16.20
2019,08,12,02,23,16.20
2019,08,12,02,24,16.20
2019,08,12,02,25,16.20
2019,08,12,02,26,16.20
2019,08,12,02,27,16.20
2019,08,12,02,28,16.20
2019,08,12,02,29,16.30
2019,08,12,02,30,16.30
2019,08,12,02,31,16.30
2019,08,12,02,32,16.30
2019,08,12,02,33,16.30
2019,08,12,02,34,16.30
2019,08,12,02,35,16.30
2019,08,12,02,36,16.30
2019,08,12,02,37,16.30
2019,08,12,02,38,16.30
2019,08,12,02,39,16.30
2019,08,12,02,40,16.30
2019,08,12,02,41,16.30
2019,08,12,02,42,16.30
2019,08,12,02,43,16.30
2019,08,12,02,44,16.30
2019,08,12,02,45,16.40
2019,08,12,02,46,16.40
2019,08,12,02,47,16.40
2019,08,12,02,48,16.40
2019,08,12,02,49,16.40
2019,08,12,02,50,16.40
2019,08,12,02,51,16.40
2019,08,12,02,52,16.40
2019,08,12,02,53,16.40
2019,08,12,02,54,16.40
2019,08,12,02,55,16.40
2019,08,12,02,56,16.40
2019,08,12,02,57,16.40
2019,08,12,02,58,16.40
2019,08,12,02,59,16.40
2019,08,12,03,00,16.40
2019,08,12,03,01,16.40
2019,08,12,03,02,16.40
2019,08,12,03,03,16.50
2019,08,12,03,04,16.50
2019,08,12,03,05,16.50
2019,08,12,03,06,16.50
2019,08,12,03,07,16.50
2019,08,12,03,08,16.60
2019,08,12,03,09,16.60
2019,08,12,03,10,16.60
2019,08,12,03,11,16.60
2019,08,12,03,12,16.60
2019,08,12,03,13,16.50
2019,08,12,03,14,16.50
2019,08,12,03,15,16.50
2019,08,12,03,16,16.50
2019,08,12,03,17,16.50
2019,08,12,03,18,16.40
2019,08,12,03,19,16.40
2019,08,12,03,20,16.40
2019,08,12,03,21,16.40
2019,08,12,03,22,16.40
2019,08,12,03,23,16.40
2019,08,12,03,24,16.40
2019,08,12,03,25,16.40
2019,08,12,03,26,16.30
2019,08,12,03,27,16.30
2019,08,12,03,28,16.30
2019,08,12,03,29,16.30
2019,08,12,03,30,16.30
2019,08,12,03,31,16.30
2019,08,12,03,32,16.30
2019,08,12,03,33,16.30
2019,08,12,03,34,16.30
2019,08,12,03,35,16.30
2019,08,12,03,36,16.30
2019,08,12,03,37,16.30
2019,08,12,03,38,16.30
2019,08,12,03,39,16.30
2019,08,12,03,40,16.30
2019,08,12,03,41,16.30
2019,08,12,03,42,16.30
2019,08,12,03,43,16.40
2019,08,12,03,44,16.30
2019,08,12,03,45,16.30
2019,08,12,03,46,16.30
2019,08,12,03,47,16.30
2019,08,12,03,48,16.30
2019,08,12,03,49,16.30
2019,08,12,03,50,16.30
2019,08,12,03,51,16.30
2019,08,12,03,52,16.30
2019,08,12,03,53,16.30
2019,08,12,03,54,16.30
2019,08,12,03,55,16.30
2019,08,12,03,56,16.20
2019,08,12,03,57,16.20
2019,08,12,03,58,16.20
2019,08,12,03,59,16.20
2019,08,12,04,00,16.20
2019,08,12,04,01,16.20
2019,08,12,04,02,16.20
2019,08,12,04,03,16.10
2019,08,12,04,04,16.10
2019,08,12,04,05,16.10
2019,08,12,04,06,16.10
2019,08,12,04,07,16.10
2019,08,12,04,08,16.00
2019,08,12,04,09,16.00
2019,08,12,04,10,16.00
2019,08,12,04,11,16.00
2019,08,12,04,12,15.90
2019,08,12,04,13,15.90
2019,08,12,04,14,15.90
2019,08,12,04,15,15.90
2019,08,12,04,16,15.90
2019,08,12,04,17,15.90
2019,08,12,04,18,15.90
2019,08,12,04,19,15.90
2019,08,12,04,20,15.80
2019,08,12,04,21,15.80
2019,08,12,04,22,15.80
2019,08,12,04,23,15.80
2019,08,12,04,24,15.80
2019,08,12,04,25,15.80
2019,08,12,04,26,15.80
2019,08,12,04,27,15.80
2019,08,12,04,28,15.80
2019,08,12,04,29,15.70
2019,08,12,04,30,15.70
2019,08,12,04,31,15.70
2019,08,12,04,32,15.70
2019,08,12,04,33,15.70
2019,08,12,04,34,15.70
2019,08,12,04,35,15.70
2019,08,12,04,36,15.70
2019,08,12,04,37,15.70
2019,08,12,04,38,15.70
2019,08,12,04,39,15.60
2019,08,12,04,40,15.60
2019,08,12,04,41,15.60
2019,08,12,04,42,15.60
2019,08,12,04,43,15.60
2019,08,12,04,44,15.60
2019,08,12,04,45,15.60
2019,08,12,04,46,15.60
2019,08,12,04,47,15.60
2019,08,12,04,48,15.50
2019,08,12,04,49,15.50
2019,08,12,04,50,15.50
2019,08,12,04,51,15.50
2019,08,12,04,52,15.50
2019,08,12,04,53,15.50
2019,08,12,04,54,15.50
2019,08,12,04,55,15.50
2019,08,12,04,56,15.50
2019,08,12,04,57,15.50
2019,08,12,04,58,15.40
2019,08,12,04,59,15.40
2019,08,12,05,00,15.40
2019,08,12,05,01,15.40
2019,08,12,05,02,15.40
2019,08,12,05,03,15.30
2019,08,12,05,04,15.30
2019,08,12,05,05,15.30
2019,08,12,05,06,15.30
2019,08,12,05,07,15.20
2019,08,12,05,08,15.20
2019,08,12,05,09,15.20
2019,08,12,05,10,15.20
2019,08,12,05,11,15.20
2019,08,12,05,12,15.20
2019,08,12,05,13,15.20
2019,08,12,05,14,15.20
2019,08,12,05,15,15.20
2019,08,12,05,16,15.20
2019,08,12,05,17,15.20
2019,08,12,05,18,15.20
2019,08,12,05,19,15.20
2019,08,12,05,20,15.20
2019,08,12,05,21,15.20
2019,08,12,05,22,15.20
2019,08,12,05,23,15.10
2019,08,12,05,24,15.10
2019,08,12,05,25,15.10
2019,08,12,05,26,15.10
2019,08,12,05,27,15.10
2019,08,12,05,28,15.10
2019,08,12,05,29,15.10
2019,08,12,05,30,15.10
2019,08,12,05,31,15.10
2019,08,12,05,32,15.10
2019,08,12,05,33,15.00
2019,08,12,05,34,15.00
2019,08,12,05,35,15.00
2019,08,12,05,36,15.00
2019,08,12,05,37,15.00
2019,08,12,05,38,15.00
2019,08,12,05,39,14.90
2019,08,12,05,40,14.90
2019,08,12,05,41,14.90
2019,08,12,05,42,14.90
2019,08,12,05,43,14.80
2019,08,12,05,44,14.80
2019,08,12,05,45,14.80
2019,08,12,05,46,14.80
2019,08,12,05,47,14.70
2019,08,12,05,48,14.70
2019,08,12,05,49,14.70
2019,08,12,05,50,14.60
2019,08,12,05,51,14.60
2019,08,12,05,52,14.60
2019,08,12,05,53,14.60
2019,08,12,05,54,14.60
2019,08,12,05,55,14.50
2019,08,12,05,56,14.50
2019,08,12,05,57,14.50
2019,08,12,05,58,14.50
2019,08,12,05,59,14.50
2019,08,12,06,00,14.50
2019,08,12,06,01,14.40
2019,08,12,06,02,14.40
2019,08,12,06,03,14.40
2019,08,12,06,04,14.40
2019,08,12,06,05,14.40
2019,08,12,06,06,14.40
2019,08,12,06,07,14.40
2019,08,12,06,08,14.40
2019,08,12,06,09,14.40
2019,08,12,06,10,14.40
2019,08,12,06,11,14.40
2019,08,12,06,12,14.40
2019,08,12,06,13,14.40
2019,08,12,06,14,14.40
2019,08,12,06,15,14.40
2019,08,12,06,16,14.40
2019,08,12,06,17,14.40
2019,08,12,06,18,14.40
2019,08,12,06,19,14.40
2019,08,12,06,20,14.40
2019,08,12,06,21,14.40
2019,08,12,06,22,14.40
2019,08,12,06,23,14.40
2019,08,12,06,24,14.40
2019,08,12,06,25,14.40
2019,08,12,06,26,14.40
2019,08,12,06,27,14.40
2019,08,12,06,28,14.40
2019,08,12,06,29,14.40
2019,08,12,06,30,14.40
2019,08,12,06,31,14.40
2019,08,12,06,32,14.30
2019,08,12,06,33,14.30
2019,08,12,06,34,14.30
2019,08,12,06,35,14.30
2019,08,12,06,36,14.30
2019,08,12,06,37,14.30
2019,08,12,06,38,14.30
2019,08,12,06,39,14.30
2019,08,12,06,40,14.30
2019,08,12,06,41,14.30
2019,08,12,10,39,18.60
2019,08,12,10,40,18.60
2019,08,12,10,41,18.60
2019,08,12,10,42,18.60
2019,08,12,10,43,18.60
2019,08,12,10,44,18.60
2019,08,12,10,45,18.60
2019,08,12,10,46,18.60
2019,08,12,10,47,18.60
2019,08,12,10,48,18.60
2019,08,12,10,49,18.70
2019,08,12,10,50,18.70
2019,08,12,10,51,18.70
2019,08,12,10,52,18.70
2019,08,12,10,53,18.70
2019,08,12,10,54,18.70
2019,08,12,10,55,18.70
2019,08,12,10,56,18.80
2019,08,12,10,57,18.80
2019,08,12,10,58,18.80
2019,08,12,10,59,18.90
2019,08,12,11,00,18.90
2019,08,12,11,01,18.90
2019,08,12,11,02,19.00
2019,08,12,11,03,19.00
2019,08,12,11,04,19.10
2019,08,12,11,05,19.10
2019,08,12,11,06,19.20
2019,08,12,11,07,19.20
2019,08,12,11,08,19.20
2019,08,12,11,09,19.20
2019,08,12,11,10,19.20
2019,08,12,11,11,19.30
2019,08,12,11,12,19.30
2019,08,12,11,13,19.30
2019,08,12,11,14,19.30
2019,08,12,11,15,19.30
2019,08,12,11,16,19.30
2019,08,12,11,17,19.30
2019,08,12,11,18,19.30
2019,08,12,11,19,19.30
2019,08,12,11,20,19.30
2019,08,12,11,21,19.30
2019,08,12,11,22,19.30
2019,08,12,11,23,19.40
2019,08,12,11,24,19.40
2019,08,12,11,25,19.40
2019,08,12,11,26,19.30
2019,08,12,11,27,19.30
2019,08,12,11,28,19.30
2019,08,12,11,29,19.30
2019,08,12,11,30,19.30
2019,08,12,11,31,19.40
2019,08,12,11,32,19.40
2019,08,12,11,33,19.40
2019,08,12,11,34,19.40
2019,08,12,11,35,19.50
2019,08,12,11,36,19.50
2019,08,12,11,37,19.60
2019,08,12,11,38,19.60
2019,08,12,11,39,19.60
2019,08,12,11,40,19.60
2019,08,12,11,41,19.60
2019,08,12,11,42,19.70
2019,08,12,11,43,19.70
2019,08,12,11,44,19.70
2019,08,12,11,45,19.70
2019,08,12,11,46,19.70
2019,08,12,11,47,19.80
2019,08,12,11,48,19.80
2019,08,12,11,49,19.80
2019,08,12,11,50,19.80
2019,08,12,11,51,19.80
2019,08,12,11,52,19.80
2019,08,12,11,53,19.90
2019,08,12,11,54,19.90
2019,08,12,11,55,19.90
2019,08,12,11,56,20.00
2019,08,12,11,57,20.00
2019,08,12,11,58,20.00
2019,08,12,11,59,20.10
2019,08,12,12,00,20.10
2019,08,12,12,01,20.10
2019,08,12,12,02,20.10
2019,08,12,12,03,20.20
2019,08,12,12,04,20.20
2019,08,12,12,05,20.20
2019,08,12,12,06,20.20
2019,08,12,12,07,20.20
2019,08,12,12,08,20.20
2019,08,12,12,09,20.20
2019,08,12,12,10,20.20
2019,08,12,12,11,20.20
2019,08,12,12,12,20.20
2019,08,12,12,13,20.20
2019,08,12,12,14,20.20
2019,08,12,12,15,20.20
2019,08,12,12,16,20.20
2019,08,12,12,17,20.20
2019,08,12,12,18,20.20
2019,08,12,12,19,20.20
2019,08,12,12,20,20.20
2019,08,12,12,21,20.20
2019,08,12,12,22,20.20
2019,08,12,12,23,20.20
2019,08,12,12,24,20.20
2019,08,12,12,25,20.20
2019,08,12,12,26,20.20
2019,08,12,12,27,20.20
2019,08,12,12,28,20.20
2019,08,12,12,29,20.20
2019,08,12,12,30,20.20
2019,08,12,12,31,20.20
2019,08,12,12,32,20.20
2019,08,12,12,33,20.20
2019,08,12,12,34,20.20
2019,08,12,12,35,20.20
2019,08,12,12,36,20.20
2019,08,12,12,37,20.20
2019,08,12,12,38,20.20
2019,08,12,12,39,20.20
2019,08,12,12,40,20.20
2019,08,12,12,41,20.30
2019,08,12,12,42,20.20
2019,08,12,12,43,20.30
2019,08,12,12,44,20.30
2019,08,12,12,45,20.30
2019,08,12,12,46,20.30
2019,08,12,12,47,20.30
2019,08,12,12,48,20.30
2019,08,12,12,49,20.30
2019,08,12,12,50,20.30
2019,08,12,12,51,20.30
2019,08,12,12,52,20.30
2019,08,12,12,53,20.40
2019,08,12,12,54,20.40
2019,08,12,12,55,20.30
2019,08,12,12,56,20.40
2019,08,12,12,57,20.40
2019,08,12,12,58,20.40
2019,08,12,12,59,20.40
2019,08,12,13,00,20.40
2019,08,12,13,01,20.40
2019,08,12,13,02,20.50
2019,08,12,13,03,20.50
2019,08,12,13,04,20.50
2019,08,12,13,05,20.50
2019,08,12,13,06,20.50
2019,08,12,13,07,20.50
2019,08,12,13,08,20.50
2019,08,12,13,09,20.50
2019,08,12,13,10,20.50
2019,08,12,13,11,20.50
2019,08,12,13,12,20.40
2019,08,12,13,13,20.40
2019,08,12,13,14,20.30
2019,08,12,13,15,20.30
2019,08,12,13,16,20.30
2019,08,12,13,17,20.20
2019,08,12,13,18,20.20
2019,08,12,13,19,20.20
2019,08,12,13,20,20.20
2019,08,12,13,21,20.20
2019,08,12,13,22,20.10
2019,08,12,13,23,20.10
2019,08,12,13,24,20.00
2019,08,12,13,25,20.00
2019,08,12,13,26,20.00
2019,08,12,13,27,20.00
2019,08,12,13,28,20.10
2019,08,12,13,29,20.10
2019,08,12,13,30,20.10
2019,08,12,13,31,20.10
2019,08,12,13,32,20.10
2019,08,12,13,33,20.20
2019,08,12,13,34,20.20
2019,08,12,13,35,20.20
2019,08,12,13,36,20.20
2019,08,12,13,37,20.20
2019,08,12,13,38,20.30
2019,08,12,13,39,20.20
2019,08,12,13,40,20.20
2019,08,12,13,41,20.30
2019,08,12,13,42,20.30
2019,08,12,13,43,20.30
2019,08,12,13,44,20.30
2019,08,12,13,45,20.40
2019,08,12,13,46,20.40
2019,08,12,13,47,20.40
2019,08,12,13,48,20.50
2019,08,12,13,49,20.50
2019,08,12,13,50,20.50
2019,08,12,13,51,20.50
2019,08,12,13,52,20.50
2019,08,12,13,53,20.50
2019,08,12,13,54,20.60
2019,08,12,13,55,20.60
2019,08,12,13,56,20.60
2019,08,12,13,57,20.60
2019,08,12,13,58,20.60
2019,08,12,13,59,20.60
2019,08,12,14,00,20.60
2019,08,12,14,01,20.70
2019,08,12,14,02,20.70
2019,08,12,14,03,20.70
2019,08,12,14,04,20.70
2019,08,12,14,05,20.70
2019,08,12,14,06,20.80
2019,08,12,14,07,20.80
2019,08,12,14,08,20.80
2019,08,12,14,09,20.80
2019,08,12,14,10,20.80
2019,08,12,14,11,20.90
2019,08,12,14,12,20.90
2019,08,12,14,13,20.90
2019,08,12,14,14,20.90
2019,08,12,14,15,20.90
2019,08,12,14,16,20.90
2019,08,12,14,17,20.90
2019,08,12,14,18,21.00
2019,08,12,14,19,21.00
2019,08,12,14,20,21.00
2019,08,12,14,21,21.10
2019,08,12,14,22,21.10
2019,08,12,14,23,21.10
2019,08,12,14,24,21.10
2019,08,12,14,25,21.10
2019,08,12,14,26,21.10
2019,08,12,14,27,21.10
2019,08,12,14,28,21.10
2019,08,12,14,29,21.10
2019,08,12,14,30,21.10
2019,08,12,14,31,21.10
2019,08,12,14,32,21.10
2019,08,12,14,33,21.10
2019,08,12,14,34,21.10
2019,08,12,14,35,21.10
2019,08,12,14,36,21.00
2019,08,12,14,37,21.00
2019,08,12,14,38,21.00
2019,08,12,14,39,21.00
2019,08,12,14,40,21.00
2019,08,12,14,41,21.00
2019,08,12,14,42,21.00
2019,08,12,14,43,21.00
2019,08,12,14,44,21.00
2019,08,12,14,45,21.00
2019,08,12,14,46,21.00
2019,08,12,14,47,21.00
2019,08,12,14,48,20.90
2019,08,12,14,49,20.90
2019,08,12,14,50,20.90
2019,08,12,14,51,20.90
2019,08,12,14,52,20.90
2019,08,12,14,53,20.90
2019,08,12,14,54,20.90
2019,08,12,14,55,20.90
2019,08,12,14,56,20.90
2019,08,12,14,57,20.90
2019,08,12,14,58,20.90
2019,08,12,14,59,20.90
2019,08,12,15,00,21.00
2019,08,12,15,01,21.00
2019,08,12,15,02,21.00
2019,08,12,15,03,21.00
2019,08,12,15,04,21.10
2019,08,12,15,05,21.10
2019,08,12,15,06,21.10
2019,08,12,15,07,21.10
2019,08,12,15,08,21.10
2019,08,12,15,09,21.10
2019,08,12,15,10,21.20
2019,08,12,15,11,21.20
2019,08,12,15,12,21.20
2019,08,12,15,13,21.20
2019,08,12,15,14,21.20
2019,08,12,15,15,21.30
2019,08,12,15,16,21.30
2019,08,12,15,17,21.40
2019,08,12,15,18,21.40
2019,08,12,15,19,21.40
2019,08,12,15,20,21.40
2019,08,12,15,21,21.40
2019,08,12,15,22,21.40
2019,08,12,15,23,21.40
2019,08,12,15,24,21.40
2019,08,12,15,25,21.40
2019,08,12,15,26,21.40
2019,08,12,15,27,21.40
2019,08,12,15,28,21.40
2019,08,12,15,29,21.40
2019,08,12,15,30,21.40
2019,08,12,15,31,21.40
2019,08,12,15,32,21.40
2019,08,12,15,33,21.50
2019,08,12,15,34,21.50
2019,08,12,15,35,21.50
2019,08,12,15,36,21.50
2019,08,12,15,37,21.40
2019,08,12,15,38,21.40
2019,08,12,15,39,21.40
2019,08,12,15,40,21.40
2019,08,12,15,41,21.40
2019,08,12,15,42,21.40
2019,08,12,15,43,21.40
2019,08,12,15,44,21.40
2019,08,12,15,45,21.40
2019,08,12,15,46,21.40
2019,08,12,15,47,21.40
2019,08,12,15,48,21.40
2019,08,12,15,49,21.40
2019,08,12,15,50,21.40
2019,08,12,15,51,21.40
2019,08,12,15,52,21.40
2019,08,12,15,53,21.40
2019,08,12,15,54,21.50
2019,08,12,15,55,21.50
2019,08,12,15,56,21.50
2019,08,12,15,57,21.50
2019,08,12,15,58,21.60
2019,08,12,15,59,21.60
2019,08,12,16,00,21.60
2019,08,12,16,01,21.70
2019,08,12,16,02,21.70
2019,08,12,16,03,21.70
2019,08,12,16,04,21.70
2019,08,12,16,05,21.70
2019,08,12,16,06,21.70
2019,08,12,16,07,21.70
2019,08,12,16,08,21.70
2019,08,12,16,09,21.70
2019,08,12,16,10,21.70
2019,08,12,16,11,21.70
2019,08,12,16,12,21.70
2019,08,12,16,13,21.80
2019,08,12,16,14,21.80
2019,08,12,16,15,21.80
2019,08,12,16,16,21.80
2019,08,12,16,17,21.80
2019,08,12,16,18,21.80
2019,08,12,16,19,21.80
2019,08,12,16,20,21.90
2019,08,12,16,21,21.90
2019,08,12,16,22,21.90
2019,08,12,16,23,21.90
2019,08,12,16,24,22.00
2019,08,12,16,25,22.00
2019,08,12,16,26,22.00
2019,08,12,16,27,22.00
2019,08,12,16,28,22.10
2019,08,12,16,29,22.10
2019,08,12,16,30,22.10
2019,08,12,16,31,22.10
2019,08,12,16,32,22.20
2019,08,12,16,33,22.20
2019,08,12,16,34,22.20
2019,08,12,16,35,22.20
2019,08,12,16,36,22.20
2019,08,12,16,37,22.20
2019,08,12,16,38,22.20
2019,08,12,16,39,22.20
2019,08,12,16,40,22.20
2019,08,12,16,41,22.20
2019,08,12,16,42,22.20
2019,08,12,16,43,22.20
2019,08,12,16,44,22.30
2019,08,12,16,45,22.30
2019,08,12,16,46,22.30
2019,08,12,16,47,22.30
2019,08,12,16,48,22.30
2019,08,12,16,49,22.30
2019,08,12,16,50,22.30
2019,08,12,16,51,22.30
2019,08,12,16,52,22.30
2019,08,12,16,53,22.30
2019,08,12,16,54,22.30
2019,08,12,16,55,22.30
2019,08,12,16,56,22.20
2019,08,12,16,57,22.10
2019,08,12,16,58,22.00
2019,08,12,16,59,21.90
2019,08,12,17,00,21.80
2019,08,12,17,01,21.70
2019,08,12,17,02,21.50
2019,08,12,17,03,21.40
2019,08,12,17,04,21.30
2019,08,12,17,05,21.20
2019,08,12,17,06,21.10
2019,08,12,17,07,21.10
2019,08,12,17,08,21.10
2019,08,12,17,09,21.10
2019,08,12,17,10,21.10
2019,08,12,17,11,21.10
2019,08,12,17,12,21.10
2019,08,12,17,13,21.10
2019,08,12,17,14,21.10
2019,08,12,17,15,21.10
2019,08,12,17,16,21.10
2019,08,12,17,17,21.20
2019,08,12,17,18,21.20
2019,08,12,17,19,21.20
2019,08,12,17,20,21.20
2019,08,12,17,21,21.20
2019,08,12,17,22,21.20
2019,08,12,17,23,21.20
2019,08,12,17,24,21.30
2019,08,12,17,25,21.30
2019,08,12,17,26,21.30
2019,08,12,17,27,21.30
2019,08,12,17,28,21.30
2019,08,12,17,29,21.40
2019,08,12,17,30,21.40
2019,08,12,17,31,21.40
2019,08,12,17,32,21.40
2019,08,12,17,33,21.40
2019,08,12,17,34,21.40
2019,08,12,17,35,21.40
2019,08,12,17,36,21.40
2019,08,12,17,37,21.40
2019,08,12,17,38,21.40
2019,08,12,17,39,21.40
2019,08,12,17,40,21.40
2019,08,12,17,41,21.50
2019,08,12,17,42,21.50
2019,08,12,17,43,21.50
2019,08,12,17,44,21.60
2019,08,12,17,45,21.60
2019,08,12,17,46,21.60
2019,08,12,17,47,21.60
2019,08,12,17,48,21.70
2019,08,12,17,49,21.70
2019,08,12,17,50,21.70
2019,08,12,17,51,21.80
2019,08,12,17,52,21.80
2019,08,12,17,53,21.80
2019,08,12,17,54,21.80
2019,08,12,17,55,21.80
2019,08,12,17,56,21.70
2019,08,12,17,57,21.60
2019,08,12,17,58,21.50
2019,08,12,17,59,21.50
2019,08,12,18,00,21.40
2019,08,12,18,01,21.20
2019,08,12,18,02,21.00
2019,08,12,18,03,20.90
2019,08,12,18,04,20.70
2019,08,12,18,05,20.50
2019,08,12,18,06,20.40
2019,08,12,18,07,20.30
2019,08,12,18,08,20.20
2019,08,12,18,09,20.10
2019,08,12,18,10,20.00
2019,08,12,18,11,19.90
2019,08,12,18,12,19.80
2019,08,12,18,13,19.70
2019,08,12,18,14,19.70
2019,08,12,18,15,19.60
2019,08,12,18,16,19.60
2019,08,12,18,17,19.60
2019,08,12,18,18,19.50
2019,08,12,18,19,19.50
2019,08,12,18,20,19.50
2019,08,12,18,21,19.50
2019,08,12,18,22,19.60
2019,08,12,18,23,19.60
2019,08,12,18,24,19.60
2019,08,12,18,25,19.60
2019,08,12,18,26,19.70
2019,08,12,18,27,19.70
2019,08,12,18,28,19.80
2019,08,12,18,29,19.80
2019,08,12,18,30,19.90
2019,08,12,18,31,19.90
2019,08,12,18,32,19.90
2019,08,12,18,33,20.00
2019,08,12,18,34,20.00
2019,08,12,18,35,20.00
2019,08,12,18,36,20.00
2019,08,12,18,37,20.00
2019,08,12,18,38,20.00
2019,08,12,18,39,20.00
2019,08,12,18,40,20.00
2019,08,12,18,41,20.00
2019,08,12,18,42,20.10
2019,08,12,18,43,20.10
2019,08,12,18,44,20.10
2019,08,12,18,45,20.10
2019,08,12,18,46,20.10
2019,08,12,18,47,20.10
2019,08,12,18,48,20.10
2019,08,12,18,49,20.10
2019,08,12,18,50,20.20
2019,08,12,18,51,20.20
2019,08,12,18,52,20.20
2019,08,12,18,53,20.20
2019,08,12,18,54,20.30
2019,08,12,18,55,20.30
2019,08,12,18,56,20.30
2019,08,12,18,57,20.30
2019,08,12,18,58,20.30
2019,08,12,18,59,20.40
2019,08,12,19,00,20.40
2019,08,12,19,01,20.40
2019,08,12,19,02,20.50
2019,08,12,19,03,20.50
2019,08,12,19,04,20.50
2019,08,12,19,05,20.50
2019,08,12,19,06,20.50
2019,08,12,19,07,20.60
2019,08,12,19,08,20.60
2019,08,12,19,09,20.60
2019,08,12,19,10,20.60
2019,08,12,19,11,20.70
2019,08,12,19,12,20.70
2019,08,12,19,13,20.70
2019,08,12,19,14,20.70
2019,08,12,19,15,20.70
2019,08,12,19,16,20.80
2019,08,12,19,17,20.80
2019,08,12,19,18,20.80
2019,08,12,19,19,20.80
2019,08,12,19,20,20.80
2019,08,12,19,21,20.80
2019,08,12,19,22,20.80
2019,08,12,19,23,20.80
2019,08,12,19,24,20.80
2019,08,12,19,25,20.80
2019,08,12,19,26,20.70
2019,08,12,19,27,20.70
2019,08,12,19,28,20.70
2019,08,12,19,29,20.70
2019,08,12,19,30,20.70
2019,08,12,19,31,20.70
2019,08,12,19,32,20.60
2019,08,12,19,33,20.60
2019,08,12,19,34,20.60
2019,08,12,19,35,20.60
2019,08,12,19,36,20.50
2019,08,12,19,37,20.50
2019,08,12,19,38,20.40
2019,08,12,19,39,20.40
2019,08,12,19,40,20.40
2019,08,12,19,41,20.30
2019,08,12,19,42,20.30
2019,08,12,19,43,20.20
2019,08,12,19,44,20.20
2019,08,12,19,45,20.10
2019,08,12,19,46,20.10
2019,08,12,19,47,20.00
2019,08,12,19,48,20.00
2019,08,12,19,49,20.00
2019,08,12,19,50,19.90
2019,08,12,19,51,19.90
2019,08,12,19,52,19.90
2019,08,12,19,53,19.80
2019,08,12,19,54,19.80
2019,08,12,19,55,19.80
2019,08,12,19,56,19.80
2019,08,12,19,57,19.80
2019,08,12,19,58,19.80
2019,08,12,19,59,19.80
2019,08,12,20,00,19.80
2019,08,12,20,01,19.80
2019,08,12,20,02,19.80
2019,08,12,20,03,19.80
2019,08,12,20,04,19.80
2019,08,12,20,05,19.80
2019,08,12,20,06,19.80
2019,08,12,20,07,19.80
2019,08,12,20,08,19.80
2019,08,12,20,09,19.70
2019,08,12,20,10,19.70
2019,08,12,20,11,19.70
2019,08,12,20,12,19.70
2019,08,12,20,13,19.70
2019,08,12,20,14,19.60
2019,08,12,20,15,19.60
2019,08,12,20,16,19.60
2019,08,12,20,17,19.60
2019,08,12,20,18,19.50
2019,08,12,20,19,19.50
2019,08,12,20,20,19.40
2019,08,12,20,21,19.40
2019,08,12,20,22,19.40
2019,08,12,20,23,19.40
2019,08,12,20,24,19.30
2019,08,12,20,25,19.30
2019,08,12,20,26,19.30
2019,08,12,20,27,19.20
2019,08,12,20,28,19.20
2019,08,12,20,29,19.20
2019,08,12,20,30,19.10
2019,08,12,20,31,19.10
2019,08,12,20,32,19.10
2019,08,12,20,33,19.00
2019,08,12,20,34,19.00
2019,08,12,20,35,18.90
2019,08,12,20,36,18.90
2019,08,12,20,37,18.90
2019,08,12,20,38,18.80
2019,08,12,20,39,18.80
2019,08,12,20,40,18.80
2019,08,12,20,41,18.70
2019,08,12,20,42,18.70
2019,08,12,20,43,18.60
2019,08,12,20,44,18.60
2019,08,12,20,45,18.60
2019,08,12,20,46,18.60
2019,08,12,20,47,18.60
2019,08,12,20,48,18.60
2019,08,12,20,49,18.60
2019,08,12,20,50,18.60
2019,08,12,20,51,18.60
2019,08,12,20,52,18.60
2019,08,12,20,53,18.60
2019,08,12,20,54,18.60
2019,08,12,20,55,18.50
2019,08,12,20,56,18.50
2019,08,12,20,57,18.50
2019,08,12,20,58,18.50
2019,08,12,20,59,18.40
2019,08,12,21,00,18.40
2019,08,12,21,01,18.40
2019,08,12,21,02,18.30
2019,08,12,21,03,18.30
2019,08,12,21,04,18.30
2019,08,12,21,05,18.30
2019,08,12,21,06,18.20
2019,08,12,21,07,18.20
2019,08,12,21,08,18.20
2019,08,12,21,09,18.20
2019,08,12,21,10,18.10
2019,08,12,21,11,18.10
2019,08,12,21,12,18.10
2019,08,12,21,13,18.10
2019,08,12,21,14,18.10
2019,08,12,21,15,18.10
2019,08,12,21,16,18.00